Tracking 28790 objects as of 19-Apr-2024
HD Live streaming from Space Station
objects crossing your sky now

SL-8 DEB

Track SL-8 DEB now!
10-day predictions


NORAD ID: 11752
Int'l Code: 1980-026C
Perigee: 965.5 km
Apogee: 1,010.7 km
Inclination: 65.8 °
Period: 104.7 minutes
Semi major axis: 7359 km
RCS: 0.4567 m2 (medium)
Launch date: April 3, 1980
Source: Commonwealth of Independent States (former USSR) (CIS)
Launch site: PLESETSK MISSILE AND SPACE COMPLEX (PKMTR)

Note: This is SATELLITE DEBRIS
Your satellite tracking list
Your tracking list is empty




NASA's NSSDC Master Catalog

Two Line Element Set (TLE):
1 11752U 80026C   24109.59567045  .00000029  00000-0  11378-3 0  9993
2 11752  65.8424 199.7578 0030667 294.8985 163.7595 13.75198393210503
Source of the keplerian elements: AFSPC